Погода в Мантейгаше

Португалия     40°24′12″N   7°32′07″W
темп.,
°C
ветер,
м/с
пор.,
м/с
влажн.,
%
обл.,
%
осадки,
мм/ч
давл.,
гПа
погр.,
м
17 мая, пн
пн1701:00+8зсз2292100 0.1 102135
04:00+7зсз228799 0.0 102030
07:00+7сз228884 0.0 102260
10:00+14св114989 0.0 1021419
13:00+18сз333543 0.0 10201163
16:00+20зсз334071 0.0 10191154
19:00+17з3452100 0.0 1019750
22:00+10з237969 0.0 102257
18 мая, вт
вт1801:00+10з236987 0.0 102147
04:00+9зюз227286 0.0 102143
07:00+10зюз23835 0.0 102174
10:00+16з366660 0.0 1021809
13:00+15з477792 0.0 1022923
16:00+15з4681100 0.2 1022753
19:00+16зсз4652100 0.2 1021931
22:00+9зсз228267 0.0 102425
19 мая, ср
ср1901:00+8ссз1187100 0.0 102416
04:00+8ссв1291100 0.0 102422
07:00+8св2585100 0.0 1025136
10:00+14св45535 0.0 1024517
13:00+19ссв443785 0.0 1024943
16:00+21с333194 0.0 10231301
19:00+19с234046 0.0 1023766
22:00+13св225266 0.0 102513
20 мая, чт
чт2001:00+11всв2256100 0.0 102413
04:00+10в22649 0.0 102420
07:00+10в256961 0.0 1025109
10:00+17всв444692 0.0 1023430
13:00+23всв32358 0.0 10221031
16:00+25ссв223282 0.0 10201691
19:00+23с1248100 0.0 1019123
22:00+16з227195 0.0 102119
21 мая, пт
пт2101:00+14з117395 0.0 102013
04:00+13з11788 0.0 101910
07:00+13зсз2275100 0.0 101924
10:00+18зсз335495 0.0 1019535
13:00+22зсз343645 0.0 10181104
16:00+22з56330 0.0 10161370
19:00+17зсз465750 0.0 1017918
22:00+11зсз239550 0.0 101986